Weather History for KMHT - December, 2012

Change the Weather History Date:

Wednesday, December 12, 2012

  Actual Average Record
Temperature  
Mean Temperature 32 °F -  
Max Temperature 37 °F 38 °F 60 °F (1969)
Min Temperature 26 °F 16 °F -8 °F (1977)
Degree Days  
Heating Degree Days 33    
Moisture  
Dew Point 20 °F    
Average Humidity 65    
Maximum Humidity 84    
Minimum Humidity 48    
Precipitation  
Precipitation 0.00 in - - ()
Sea Level Pressure  
Sea Level Pressure 30.36 in    
Wind  
Wind Speed 3 mph (West)    
Max Wind Speed 6 mph    
Max Gust Speed -    
Visibility 10 miles    
Events      
Averages and records for this station are not official NWS values.
T = Trace of Precipitation, MM = Missing Value Source: NWS Daily Summary

Daily Weather History Graph

Daily Weather History Graph

Search for Another Location

Airport or City:

Trip Planner

Search our weather history database for the weather conditions in past years. The results will help you decide how hot, cold, wet, or windy it might be!

Date:

Astronomy

Dec. 12, 2012 Rise Set
Actual Time 7:07 AM EST 4:11 PM EST
Civil Twilight 6:35 AM EST 4:43 PM EST
Nautical Twilight 5:59 AM EST 5:19 PM EST
Astronomical Twilight 5:25 AM EST 5:53 PM EST
Moon 6:08 AM EST (12/12) 3:45 PM EST (12/12)
Length of Visible Light 10h 08m
Length of Day
9h 03m
Waning Crescent, 1% of the Moon is Illuminated
Dec 12
Waning Crescent
Dec 13
New
Dec 20
First Quarter
Dec 28
Full
Jan 4
Last Quarter

Hourly Weather History & Observations

Time (EST) Temp. Windchill Dew Point Humidity Pressure Visibility Wind Dir Wind Speed Gust Speed Precip Events Conditions
12:53 AM 32.0 °F 28.7 °F 21.0 °F 64% 30.19 in 10.0 mi WNW 3.5 mph - N/A   Clear
1:53 AM 30.9 °F - 21.0 °F 67% 30.22 in 10.0 mi Calm Calm - N/A   Clear
2:53 AM 30.0 °F 25.2 °F 19.9 °F 66% 30.24 in 10.0 mi NNW 4.6 mph - N/A   Clear
3:53 AM 28.9 °F 23.9 °F 19.0 °F 67% 30.25 in 10.0 mi North 4.6 mph - N/A   Clear
4:53 AM 28.9 °F 25.2 °F 19.0 °F 67% 30.28 in 10.0 mi NW 3.5 mph - N/A   Clear
5:53 AM 28.9 °F - 19.0 °F 67% 30.32 in 10.0 mi Calm Calm - N/A   Clear
6:53 AM 28.0 °F 24.2 °F 19.0 °F 69% 30.34 in 10.0 mi NNW 3.5 mph - N/A   Clear
7:53 AM 28.0 °F 22.8 °F 19.0 °F 69% 30.36 in 10.0 mi NNW 4.6 mph - N/A   Clear
8:53 AM 28.9 °F - 19.9 °F 69% 30.38 in 10.0 mi Calm Calm - N/A   Clear
9:53 AM 32.0 °F 27.5 °F 19.9 °F 61% 30.38 in 10.0 mi NW 4.6 mph - N/A   Clear
10:53 AM 33.1 °F 27.7 °F 19.0 °F 56% 30.38 in 10.0 mi NW 5.8 mph - N/A   Clear
11:53 AM 34.0 °F - 19.0 °F 54% 30.36 in 10.0 mi Calm Calm - N/A   Clear
12:53 PM 37.0 °F 34.5 °F 19.9 °F 50% 30.35 in 10.0 mi South 3.5 mph - N/A   Clear
1:53 PM 37.9 °F 33.5 °F 21.0 °F 51% 30.35 in 10.0 mi SSW 5.8 mph - N/A   Partly Cloudy
2:53 PM 37.9 °F 33.5 °F 19.9 °F 48% 30.36 in 10.0 mi SSW 5.8 mph - N/A   Partly Cloudy
3:53 PM 37.0 °F 32.4 °F 19.9 °F 50% 30.39 in 10.0 mi South 5.8 mph - N/A   Scattered Clouds
4:53 PM 34.0 °F 29.8 °F 21.9 °F 61% 30.40 in 10.0 mi SSE 4.6 mph - N/A   Scattered Clouds
5:53 PM 35.1 °F 32.2 °F 21.0 °F 57% 30.41 in 10.0 mi SSW 3.5 mph - N/A   Mostly Cloudy
6:53 PM 32.0 °F - 21.0 °F 64% 30.42 in 10.0 mi Calm Calm - N/A   Partly Cloudy
7:53 PM 28.9 °F 25.2 °F 21.9 °F 75% 30.44 in 10.0 mi SE 3.5 mph - N/A   Clear
8:53 PM 28.0 °F - 21.9 °F 78% 30.44 in 10.0 mi Calm Calm - N/A   Clear
9:53 PM 27.0 °F - 21.9 °F 81% 30.46 in 10.0 mi Calm Calm - N/A   Clear
10:53 PM 27.0 °F - 21.9 °F 81% 30.45 in 10.0 mi Calm Calm - N/A   Clear
11:53 PM 26.1 °F - 21.9 °F 84% 30.47 in 10.0 mi Calm Calm - N/A   Clear